Hourly Data Report for June 19, 2021

BORDEN AWOS
ONTARIO
Current Station Operator: DND

44°16'20.000" N
79°54'42.000" W
222.50 m
611B002
71534
YBN

Download Data

Hourly Data (June 2021)
Hourly Data Report for June 19, 2021
TIME
LST
Temp Definition
°C
Dew Point Definition
°C
Rel Hum Definition
%
Precip. Amount Definition
mm

Wind Dir Definition
10's deg

Wind Spd Definition
km/h
Visibility Definition
km
Stn Press Definition
kPa
Hmdx Definition


Wind Chill Definition


Weather Definition


00:00 17.4 15.4 88   21 6 14.5 98.03     LegendNANA
01:00 14.6 13.3 92   17 6 2.7 98.00     LegendNANA
02:00
03:00 11.8 10.3 91   18 6 6.4 97.94     LegendNANA
04:00
05:00 11.5 10.0 91   29 6 14.5 98.10     LegendNANA
06:00 16.3 13.2 82   12 7 14.5 98.05     LegendNANA
07:00 18.4 13.3 72   1 9 14.5 98.08     LegendNANA
08:00 21.7 13.3 59   31 11 14.5 98.11 25   LegendNANA
09:00 23.8 13.0 51   29 19 14.5 98.07 27   LegendNANA
10:00 24.6 12.4 47   36 19 14.5 98.05 27   LegendNANA
11:00 24.2 11.6 45   34 9 14.5 98.12 26   LegendNANA
12:00 24.7 12.1 45   2 15 14.5 98.14 27   LegendNANA
13:00 24.2 11.7 46   34 15 14.5 98.10 26   LegendNANA
14:00 24.4 11.7 45   35 11 14.5 98.06 27   LegendNANA
15:00 24.0 11.9 47   35 13 14.5 98.03 26   LegendNANA
16:00 24.7 11.7 44   33 13 14.5 98.01 27   LegendNANA
17:00 24.7 11.3 43   34 13 14.5 97.99 27   LegendNANA
18:00 22.9 10.3 45   36 13 14.5 98.01     LegendNANA
19:00 21.2 10.1 49   33 6 14.5 98.04     LegendNANA
20:00 18.4 10.0 58   34 6 14.5 98.10     LegendNANA
21:00 15.1 9.5 69     0 14.5 98.17     LegendNANA
22:00 12.7 8.2 74   18 6 14.5 98.19     LegendNANA
23:00 10.7 8.0 83     0 14.5 98.19     LegendNANA

Notes on Data Quality.

Legend

  • E = Estimated
  • M = Missing
  • NA = Not Available*
  • [empty] = Indicates an unobserved value
Date modified: